This demonstration page uses our WeatherBlox Daily Observations layout. Learn more.

Left ArrowRight Arrow

40.97296, -117.73568

Hourly Observations for March 11, 2016

Temp ( °F °C ) Dew Point ( °F °C ) Humidity (%) Winds ( mph kmh ) Pressure ( in mb ) Visibility ( mi km ) Precip ( " mm )
12:56 am 00:56 Mostly Clear 43 6.1 40 4.4 89 89 ENE 13 20 29.91 1013 10 16 0.00 0.00
1:56 am 01:56 Cloudy 43 6.1 39 3.9 86 86 ENE 13 20 29.88 1012 10 16 0.00 0.00
2:56 am 02:56 Cloudy 43 6.1 40 4.4 89 89 E 9 15 29.85 1011 10 16 0.00 0.00
3:56 am 03:56 Partly Cloudy 43 6.1 40 4.4 89 89 NNE 16 26 29.81 1010 10 16 0.00 0.00
4:56 am 04:56 Clear 43 6.1 40 4.4 89 89 NNE 17 28 29.78 1009 10 16 0.00 0.00
5:56 am 05:56 Mostly Clear 43 6.1 39 3.9 86 86 NE 15 24 29.78 1009 10 16 0.00 0.00
6:56 am 06:56 Sunny 43 6.1 39 3.9 86 86 NE 16 26 29.77 1008 10 16 0.00 0.00
7:56 am 07:56 Sunny 44 6.7 39 3.9 83 83 NE 14 22 29.76 1008 10 16 0.00 0.00
8:56 am 08:56 Sunny 48 8.9 41 5 77 77 NE 13 20 29.73 1007 10 16 0.00 0.00
9:56 am 09:56 Sunny 52 11.1 42 5.6 69 69 NE 12 19 29.70 1006 10 16 0.00 0.00
10:56 am 10:56 Sunny 55 12.8 42 5.6 62 62 E 7 11 29.66 1004 10 16 0.00 0.00
11:56 am 11:56 Sunny 61 16.1 32 0 34 34 SSE 17 28 29.60 1002 10 16 0.00 0.00
12:56 pm 12:56 Sunny 62 16.7 30 -1.1 30 30 SSE 16 26 29.57 1001 10 16 0.00 0.00
1:56 pm 13:56 Mostly Sunny 62 16.7 30 -1.1 30 30 SSE 14 22 29.54 1000 10 16 0.00 0.00
2:56 pm 14:56 Cloudy 60 15.6 29 -1.7 31 31 SSW 13 20 29.53 1000 10 16 0.00 0.00
3:56 pm 15:56 Mostly Cloudy 55 12.8 35 1.7 47 47 WSW 16 26 29.55 1001 10 16 0.00 0.00
4:56 pm 16:56 Mostly Cloudy 53 11.7 39 3.9 59 59 W 18 30 29.57 1001 10 16 0.00 0.00
5:56 pm 17:56 Cloudy 48 8.9 41 5 77 77 W 16 26 29.61 1003 10 16 0.00 0.00
6:56 pm 18:56 Cloudy with Light Rain 44 6.7 42 5.6 93 93 W 15 24 29.67 1005 9 14 0.04 1.02
7:06 pm 19:06 Cloudy with Light Rain 43 6.1 40 4.4 89 89 W 15 24 29.71 1006 7 11 0.01 0.25
7:56 pm 19:56 Cloudy with Rain 40 4.4 37 2.8 89 89 W 20 31 29.73 1007 5 8 0.11 2.79
8:56 pm 20:56 Cloudy with Light Rain 39 3.9 36 2.2 89 89 SW 7 11 29.77 1008 7 11 0.13 3.30
9:56 pm 21:56 Cloudy with Light Rain 39 3.9 36 2.2 89 89 SSW 9 15 29.78 1009 10 16 0.02 0.51
10:08 pm 22:08 Cloudy with Light Rain 39 4 36 2 87 87 SSW 7 11 29.88 1012 10 16 0.00 0.00
10:56 pm 22:56 Mostly Cloudy 38 3.3 36 2.2 93 93 SSE 7 11 29.77 1008 10 16 0.01 0.25
11:56 pm 23:56 Clear 36 2.2 34 1.1 93 93 S 12 19 29.77 1008 10 16 0.00 0.00

Powered by AerisWeather